User: anonymous   Login
Location: Via Auriletto, 13, 10098 Rivoli TO, Italia
(45.0746°N, 7.5214°E)
Time: 19:58:47
(UTC+01:00)
Language:

CUBESAT XI-V - Orbit

View from above orbital plane
View from above orbital plane
View from above satellite
View from above satellite

Ground track
Ground track

The orbit data is extracted from the following two-line orbital elements,

1 28895U 05043F   19324.21045458  .00000156  00000-0  38902-4 0  9990
2 28895  97.9811 101.8565 0016010 220.5338 139.4673 14.63712292750086
Epoch (UTC): 20 November 2019 05:03:03
Eccentricity: 0.0016010
inclination: 97.9811°
perigee height: 670 km
apogee height: 692 km
right ascension of ascending node: 101.8565°
argument of perigee: 220.5338°
revolutions per day: 14.63712292
mean anomaly at epoch: 139.4673°
orbit number at epoch: 75008

The dashed part of the orbit path shows where the satellite is in the earth's shadow,  

DLR